Volver al catálogo

COSMOS 827

ActivoMilitarLEO
NORAD 8891·PAYLOAD·🇷🇺 Russia

Lanzado Jun 15, 1976 desde Plesetsk Cosmodrome

Loading…

Próximos Pases (próximas 24 horas)

TLE

ActualizadoSource: Space-Track

Época: Sep 13, 2026, 10:15 UTC

1 08891U 76054C   26256.42770295 -.00000024  00000-0 -50188-4 0  9999
2 08891  74.0039  15.5209 0048386 146.8725 288.3884 12.53310511716608

Sigue COSMOS 827 en tiempo real con AllMySat

Download on the App Store